Data supplied by UK-AIR on 3/1/2024
All Data GMT hour ending 
Status: R =Ratified P=Provisional,P*=As supplied
,,Tower Hamlets Roadside,,,,,,,,,,,,,,,,,,,,,,,
Date,time,"Nitric oxide",status,unit,"Nitrogen dioxide",status,unit,"Nitrogen oxides as nitrogen dioxide",status,unit
 
01-01-2023,01:00,1.74622,R,ugm-3,5.73750,R,ugm-3,8.22375,R,ugm-3
01-01-2023,02:00,1.62149,R,ugm-3,4.97250,R,ugm-3,7.45875,R,ugm-3
01-01-2023,03:00,2.12041,R,ugm-3,6.50250,R,ugm-3,9.75375,R,ugm-3
01-01-2023,04:00,1.74622,R,ugm-3,4.01625,R,ugm-3,6.69375,R,ugm-3
01-01-2023,05:00,1.62149,R,ugm-3,3.63375,R,ugm-3,6.12000,R,ugm-3
01-01-2023,06:00,1.24730,R,ugm-3,4.20750,R,ugm-3,6.12000,R,ugm-3
01-01-2023,07:00,1.37203,R,ugm-3,3.63375,R,ugm-3,5.73750,R,ugm-3
01-01-2023,08:00,1.24730,R,ugm-3,4.01625,R,ugm-3,5.92875,R,ugm-3
01-01-2023,09:00,1.74622,R,ugm-3,5.73750,R,ugm-3,8.41500,R,ugm-3
01-01-2023,10:00,1.37203,R,ugm-3,4.97250,R,ugm-3,7.07625,R,ugm-3
01-01-2023,11:00,1.49676,R,ugm-3,4.78125,R,ugm-3,7.07625,R,ugm-3
01-01-2023,12:00,1.37203,R,ugm-3,4.39875,R,ugm-3,6.50250,R,ugm-3
01-01-2023,13:00,1.49676,R,ugm-3,4.78125,R,ugm-3,7.07625,R,ugm-3
01-01-2023,14:00,1.87095,R,ugm-3,6.50250,R,ugm-3,9.18000,R,ugm-3
01-01-2023,15:00,1.99568,R,ugm-3,8.79750,R,ugm-3,11.85750,R,ugm-3
01-01-2023,16:00,1.74622,R,ugm-3,8.22375,R,ugm-3,10.90125,R,ugm-3
01-01-2023,17:00,1.87095,R,ugm-3,9.94500,R,ugm-3,12.81375,R,ugm-3
01-01-2023,18:00,2.12041,R,ugm-3,14.91750,R,ugm-3,18.36000,R,ugm-3
01-01-2023,19:00,6.73542,R,ugm-3,25.62750,R,ugm-3,35.95500,R,ugm-3
01-01-2023,20:00,11.22570,R,ugm-3,31.36500,R,ugm-3,48.57750,R,ugm-3
01-01-2023,21:00,9.60421,R,ugm-3,30.40875,R,ugm-3,45.13500,R,ugm-3
01-01-2023,22:00,9.72894,R,ugm-3,31.74750,R,ugm-3,46.66500,R,ugm-3
01-01-2023,23:00,6.98488,R,ugm-3,32.32125,R,ugm-3,43.03125,R,ugm-3
01-01-2023,24:00,2.86879,R,ugm-3,27.73125,R,ugm-3,32.13000,R,ugm-3
02-01-2023,01:00,4.11609,R,ugm-3,17.78625,R,ugm-3,24.09750,R,ugm-3
02-01-2023,02:00,2.86879,R,ugm-3,13.19625,R,ugm-3,17.59500,R,ugm-3
02-01-2023,03:00,2.12041,R,ugm-3,10.13625,R,ugm-3,13.38750,R,ugm-3
02-01-2023,04:00,1.62149,R,ugm-3,7.84125,R,ugm-3,10.32750,R,ugm-3
02-01-2023,05:00,1.24730,R,ugm-3,5.73750,R,ugm-3,7.84125,R,ugm-3
02-01-2023,06:00,1.49676,R,ugm-3,10.90125,R,ugm-3,13.19625,R,ugm-3
02-01-2023,07:00,1.49676,R,ugm-3,9.75375,R,ugm-3,12.24000,R,ugm-3
02-01-2023,08:00,2.49460,R,ugm-3,12.04875,R,ugm-3,15.87375,R,ugm-3
02-01-2023,09:00,4.36555,R,ugm-3,18.36000,R,ugm-3,25.05375,R,ugm-3
02-01-2023,10:00,6.86015,R,ugm-3,25.62750,R,ugm-3,35.95500,R,ugm-3
02-01-2023,11:00,8.35691,R,ugm-3,23.33250,R,ugm-3,36.14625,R,ugm-3
02-01-2023,12:00,12.22354,R,ugm-3,26.77500,R,ugm-3,45.51750,R,ugm-3
02-01-2023,13:00,10.97624,R,ugm-3,23.90625,R,ugm-3,40.73625,R,ugm-3
02-01-2023,14:00,7.73326,R,ugm-3,20.08125,R,ugm-3,31.74750,R,ugm-3
02-01-2023,15:00,6.86015,R,ugm-3,17.40375,R,ugm-3,27.92250,R,ugm-3
02-01-2023,16:00,8.60637,R,ugm-3,21.61125,R,ugm-3,34.99875,R,ugm-3
02-01-2023,17:00,18.83423,R,ugm-3,37.67625,R,ugm-3,66.55500,R,ugm-3
02-01-2023,18:00,17.33747,R,ugm-3,47.04750,R,ugm-3,73.63125,R,ugm-3
02-01-2023,19:00,8.10745,R,ugm-3,49.91625,R,ugm-3,62.34750,R,ugm-3
02-01-2023,20:00,12.22354,R,ugm-3,53.16750,R,ugm-3,71.91000,R,ugm-3
02-01-2023,21:00,13.09665,R,ugm-3,53.93250,R,ugm-3,73.82250,R,ugm-3
02-01-2023,22:00,23.69870,R,ugm-3,55.65375,R,ugm-3,92.18250,R,ugm-3
02-01-2023,23:00,30.93304,R,ugm-3,53.93250,R,ugm-3,101.36250,R,ugm-3
02-01-2023,24:00,34.17602,R,ugm-3,55.46250,R,ugm-3,107.86500,R,ugm-3
03-01-2023,01:00,31.93088,R,ugm-3,49.53375,R,ugm-3,98.49375,R,ugm-3
03-01-2023,02:00,10.22786,R,ugm-3,44.56125,R,ugm-3,60.24375,R,ugm-3
03-01-2023,03:00,10.60205,R,ugm-3,42.64875,R,ugm-3,58.71375,R,ugm-3
03-01-2023,04:00,6.48596,R,ugm-3,37.10250,R,ugm-3,47.04750,R,ugm-3
03-01-2023,05:00,6.11177,R,ugm-3,23.71500,R,ugm-3,33.08625,R,ugm-3
03-01-2023,06:00,2.49460,R,ugm-3,16.44750,R,ugm-3,20.27250,R,ugm-3
03-01-2023,07:00,2.61933,R,ugm-3,21.22875,R,ugm-3,25.24500,R,ugm-3
03-01-2023,08:00,2.86879,R,ugm-3,22.56750,R,ugm-3,26.96625,R,ugm-3
03-01-2023,09:00,2.36987,R,ugm-3,18.36000,R,ugm-3,21.99375,R,ugm-3
03-01-2023,10:00,2.49460,R,ugm-3,15.10875,R,ugm-3,18.74250,R,ugm-3
03-01-2023,11:00,2.49460,R,ugm-3,13.38750,R,ugm-3,17.21250,R,ugm-3
03-01-2023,12:00,2.49460,R,ugm-3,12.62250,R,ugm-3,16.44750,R,ugm-3
03-01-2023,13:00,2.12041,R,ugm-3,10.71000,R,ugm-3,13.96125,R,ugm-3
03-01-2023,14:00,1.74622,R,ugm-3,9.75375,R,ugm-3,12.43125,R,ugm-3
03-01-2023,15:00,1.74622,R,ugm-3,9.94500,R,ugm-3,12.43125,R,ugm-3
03-01-2023,16:00,1.87095,R,ugm-3,10.13625,R,ugm-3,13.00500,R,ugm-3
03-01-2023,17:00,2.12041,R,ugm-3,9.56250,R,ugm-3,12.81375,R,ugm-3
03-01-2023,18:00,1.62149,R,ugm-3,7.84125,R,ugm-3,10.32750,R,ugm-3
03-01-2023,19:00,1.87095,R,ugm-3,6.69375,R,ugm-3,9.56250,R,ugm-3
03-01-2023,20:00,1.87095,R,ugm-3,7.26750,R,ugm-3,10.13625,R,ugm-3
03-01-2023,21:00,1.37203,R,ugm-3,7.07625,R,ugm-3,9.18000,R,ugm-3
03-01-2023,22:00,1.49676,R,ugm-3,6.12000,R,ugm-3,8.60625,R,ugm-3
03-01-2023,23:00,2.49460,R,ugm-3,5.35500,R,ugm-3,8.98875,R,ugm-3
03-01-2023,24:00,1.87095,R,ugm-3,4.01625,R,ugm-3,6.69375,R,ugm-3
04-01-2023,01:00,1.99568,R,ugm-3,3.44250,R,ugm-3,6.50250,R,ugm-3
04-01-2023,02:00,1.49676,R,ugm-3,1.91250,R,ugm-3,4.39875,R,ugm-3
04-01-2023,03:00,1.37203,R,ugm-3,1.53000,R,ugm-3,3.82500,R,ugm-3
04-01-2023,04:00,1.24730,R,ugm-3,1.72125,R,ugm-3,3.82500,R,ugm-3
04-01-2023,05:00,1.12257,R,ugm-3,2.10375,R,ugm-3,4.01625,R,ugm-3
04-01-2023,06:00,1.49676,R,ugm-3,2.67750,R,ugm-3,4.97250,R,ugm-3
04-01-2023,07:00,1.99568,R,ugm-3,4.78125,R,ugm-3,7.65000,R,ugm-3
04-01-2023,08:00,2.24514,R,ugm-3,8.98875,R,ugm-3,12.43125,R,ugm-3
04-01-2023,09:00,5.11393,R,ugm-3,15.10875,R,ugm-3,22.75875,R,ugm-3
04-01-2023,10:00,3.86663,R,ugm-3,13.96125,R,ugm-3,20.08125,R,ugm-3
04-01-2023,11:00,6.36123,R,ugm-3,13.57875,R,ugm-3,23.52375,R,ugm-3
04-01-2023,12:00,4.24082,R,ugm-3,13.38750,R,ugm-3,19.89000,R,ugm-3
04-01-2023,13:00,4.73974,R,ugm-3,16.25625,R,ugm-3,23.52375,R,ugm-3
04-01-2023,14:00,4.11609,R,ugm-3,14.53500,R,ugm-3,20.84625,R,ugm-3
04-01-2023,15:00,6.36123,R,ugm-3,16.63875,R,ugm-3,26.20125,R,ugm-3
04-01-2023,16:00,5.11393,R,ugm-3,17.97750,R,ugm-3,25.62750,R,ugm-3
04-01-2023,17:00,6.48596,R,ugm-3,16.44750,R,ugm-3,26.20125,R,ugm-3
04-01-2023,18:00,6.23650,R,ugm-3,21.61125,R,ugm-3,31.17375,R,ugm-3
04-01-2023,19:00,4.24082,R,ugm-3,18.74250,R,ugm-3,25.24500,R,ugm-3
04-01-2023,20:00,4.36555,R,ugm-3,17.21250,R,ugm-3,24.09750,R,ugm-3
04-01-2023,21:00,4.11609,R,ugm-3,18.36000,R,ugm-3,24.48000,R,ugm-3
04-01-2023,22:00,3.74190,R,ugm-3,14.53500,R,ugm-3,20.27250,R,ugm-3
04-01-2023,23:00,4.24082,R,ugm-3,14.72625,R,ugm-3,21.22875,R,ugm-3
04-01-2023,24:00,4.11609,R,ugm-3,13.00500,R,ugm-3,19.12500,R,ugm-3
05-01-2023,01:00,3.86663,R,ugm-3,11.28375,R,ugm-3,17.21250,R,ugm-3
05-01-2023,02:00,3.24298,R,ugm-3,9.18000,R,ugm-3,14.34375,R,ugm-3
05-01-2023,03:00,2.12041,R,ugm-3,8.22375,R,ugm-3,11.47500,R,ugm-3
05-01-2023,04:00,1.99568,R,ugm-3,6.31125,R,ugm-3,9.18000,R,ugm-3
05-01-2023,05:00,2.24514,R,ugm-3,6.88500,R,ugm-3,10.32750,R,ugm-3
05-01-2023,06:00,2.12041,R,ugm-3,7.45875,R,ugm-3,10.71000,R,ugm-3
05-01-2023,07:00,3.24298,R,ugm-3,10.51875,R,ugm-3,15.68250,R,ugm-3
05-01-2023,08:00,3.49244,R,ugm-3,16.06500,R,ugm-3,21.22875,R,ugm-3
05-01-2023,09:00,5.23866,R,ugm-3,24.48000,R,ugm-3,32.51250,R,ugm-3
05-01-2023,10:00,6.61069,R,ugm-3,24.67125,R,ugm-3,34.80750,R,ugm-3
05-01-2023,11:00,5.23866,R,ugm-3,18.55125,R,ugm-3,26.58375,R,ugm-3
05-01-2023,12:00,5.98704,R,ugm-3,19.50750,R,ugm-3,28.68750,R,ugm-3
05-01-2023,13:00,5.73758,R,ugm-3,18.16875,R,ugm-3,26.96625,R,ugm-3
05-01-2023,14:00,5.11393,R,ugm-3,16.44750,R,ugm-3,24.28875,R,ugm-3
05-01-2023,15:00,5.11393,R,ugm-3,18.16875,R,ugm-3,26.01000,R,ugm-3
05-01-2023,16:00,4.24082,R,ugm-3,13.96125,R,ugm-3,20.65500,R,ugm-3
05-01-2023,17:00,4.61501,R,ugm-3,13.19625,R,ugm-3,20.27250,R,ugm-3
05-01-2023,18:00,5.11393,R,ugm-3,14.15250,R,ugm-3,21.99375,R,ugm-3
05-01-2023,19:00,3.36771,R,ugm-3,13.57875,R,ugm-3,18.74250,R,ugm-3
05-01-2023,20:00,3.36771,R,ugm-3,10.32750,R,ugm-3,15.49125,R,ugm-3
05-01-2023,21:00,2.24514,R,ugm-3,9.56250,R,ugm-3,13.00500,R,ugm-3
05-01-2023,22:00,1.87095,R,ugm-3,7.26750,R,ugm-3,9.94500,R,ugm-3
05-01-2023,23:00,1.62149,R,ugm-3,5.73750,R,ugm-3,8.22375,R,ugm-3
05-01-2023,24:00,1.99568,R,ugm-3,4.59000,R,ugm-3,7.45875,R,ugm-3
06-01-2023,01:00,1.49676,R,ugm-3,3.44250,R,ugm-3,5.73750,R,ugm-3
06-01-2023,02:00,1.74622,R,ugm-3,3.63375,R,ugm-3,6.31125,R,ugm-3
06-01-2023,03:00,1.99568,R,ugm-3,5.16375,R,ugm-3,8.22375,R,ugm-3
06-01-2023,04:00,1.74622,R,ugm-3,6.31125,R,ugm-3,8.98875,R,ugm-3
06-01-2023,05:00,1.87095,R,ugm-3,6.69375,R,ugm-3,9.56250,R,ugm-3
06-01-2023,06:00,2.24514,R,ugm-3,7.26750,R,ugm-3,10.71000,R,ugm-3
06-01-2023,07:00,2.74406,R,ugm-3,12.24000,R,ugm-3,16.44750,R,ugm-3
06-01-2023,08:00,3.24298,R,ugm-3,14.53500,R,ugm-3,19.50750,R,ugm-3
06-01-2023,09:00,5.86231,R,ugm-3,20.08125,R,ugm-3,29.07000,R,ugm-3
06-01-2023,10:00,4.73974,R,ugm-3,19.69875,R,ugm-3,27.15750,R,ugm-3
06-01-2023,11:00,4.49028,R,ugm-3,18.55125,R,ugm-3,25.43625,R,ugm-3
06-01-2023,12:00,5.23866,R,ugm-3,14.34375,R,ugm-3,22.37625,R,ugm-3
06-01-2023,13:00,4.98920,R,ugm-3,13.38750,R,ugm-3,21.03750,R,ugm-3
06-01-2023,14:00,4.11609,R,ugm-3,15.68250,R,ugm-3,21.99375,R,ugm-3
06-01-2023,15:00,3.74190,R,ugm-3,16.83000,R,ugm-3,22.56750,R,ugm-3
06-01-2023,16:00,4.36555,R,ugm-3,21.61125,R,ugm-3,28.30500,R,ugm-3
06-01-2023,17:00,3.24298,R,ugm-3,25.05375,R,ugm-3,30.21750,R,ugm-3
06-01-2023,18:00,3.36771,R,ugm-3,27.15750,R,ugm-3,32.32125,R,ugm-3
06-01-2023,19:00,2.49460,R,ugm-3,16.83000,R,ugm-3,20.65500,R,ugm-3
06-01-2023,20:00,2.12041,R,ugm-3,11.66625,R,ugm-3,14.91750,R,ugm-3
06-01-2023,21:00,1.74622,R,ugm-3,9.37125,R,ugm-3,12.04875,R,ugm-3
06-01-2023,22:00,1.62149,R,ugm-3,7.84125,R,ugm-3,10.32750,R,ugm-3
06-01-2023,23:00,1.62149,R,ugm-3,5.35500,R,ugm-3,7.65000,R,ugm-3
06-01-2023,24:00,1.74622,R,ugm-3,5.16375,R,ugm-3,7.84125,R,ugm-3
07-01-2023,01:00,1.74622,R,ugm-3,3.82500,R,ugm-3,6.50250,R,ugm-3
07-01-2023,02:00,1.62149,R,ugm-3,2.48625,R,ugm-3,4.97250,R,ugm-3
07-01-2023,03:00,1.12257,R,ugm-3,1.91250,R,ugm-3,3.63375,R,ugm-3
07-01-2023,04:00,0.87311,R,ugm-3,1.33875,R,ugm-3,2.67750,R,ugm-3
07-01-2023,05:00,1.37203,R,ugm-3,1.14750,R,ugm-3,3.25125,R,ugm-3
07-01-2023,06:00,0.99784,R,ugm-3,1.14750,R,ugm-3,2.67750,R,ugm-3
07-01-2023,07:00,1.12257,R,ugm-3,1.91250,R,ugm-3,3.82500,R,ugm-3
07-01-2023,08:00,1.24730,R,ugm-3,2.29500,R,ugm-3,4.39875,R,ugm-3
07-01-2023,09:00,1.24730,R,ugm-3,3.63375,R,ugm-3,5.73750,R,ugm-3
07-01-2023,10:00,1.37203,R,ugm-3,4.01625,R,ugm-3,6.31125,R,ugm-3
07-01-2023,11:00,1.37203,R,ugm-3,5.73750,R,ugm-3,7.84125,R,ugm-3
07-01-2023,12:00,1.74622,R,ugm-3,6.31125,R,ugm-3,8.98875,R,ugm-3
07-01-2023,13:00,2.24514,R,ugm-3,7.07625,R,ugm-3,10.32750,R,ugm-3
07-01-2023,14:00,1.99568,R,ugm-3,7.45875,R,ugm-3,10.51875,R,ugm-3
07-01-2023,15:00,2.12041,R,ugm-3,8.41500,R,ugm-3,11.47500,R,ugm-3
07-01-2023,16:00,3.11825,R,ugm-3,8.60625,R,ugm-3,13.38750,R,ugm-3
07-01-2023,17:00,2.12041,R,ugm-3,7.65000,R,ugm-3,10.90125,R,ugm-3
07-01-2023,18:00,2.61933,R,ugm-3,8.41500,R,ugm-3,12.43125,R,ugm-3
07-01-2023,19:00,3.11825,R,ugm-3,8.41500,R,ugm-3,13.19625,R,ugm-3
07-01-2023,20:00,3.24298,R,ugm-3,9.94500,R,ugm-3,14.72625,R,ugm-3
07-01-2023,21:00,3.36771,R,ugm-3,10.71000,R,ugm-3,15.68250,R,ugm-3
07-01-2023,22:00,2.36987,R,ugm-3,9.37125,R,ugm-3,12.81375,R,ugm-3
07-01-2023,23:00,1.87095,R,ugm-3,8.41500,R,ugm-3,11.28375,R,ugm-3
07-01-2023,24:00,1.87095,R,ugm-3,8.79750,R,ugm-3,11.66625,R,ugm-3
08-01-2023,01:00,1.87095,R,ugm-3,7.26750,R,ugm-3,10.13625,R,ugm-3
08-01-2023,02:00,1.62149,R,ugm-3,5.54625,R,ugm-3,8.22375,R,ugm-3
08-01-2023,03:00,1.12257,R,ugm-3,3.63375,R,ugm-3,5.54625,R,ugm-3
08-01-2023,04:00,1.12257,R,ugm-3,2.48625,R,ugm-3,4.39875,R,ugm-3
08-01-2023,05:00,1.24730,R,ugm-3,3.25125,R,ugm-3,5.16375,R,ugm-3
08-01-2023,06:00,0.87311,R,ugm-3,1.91250,R,ugm-3,3.06000,R,ugm-3
08-01-2023,07:00,0.99784,R,ugm-3,3.63375,R,ugm-3,5.16375,R,ugm-3
08-01-2023,08:00,1.24730,R,ugm-3,5.54625,R,ugm-3,7.45875,R,ugm-3
08-01-2023,09:00,1.74622,R,ugm-3,7.26750,R,ugm-3,9.94500,R,ugm-3
08-01-2023,10:00,1.49676,R,ugm-3,7.84125,R,ugm-3,10.13625,R,ugm-3
08-01-2023,11:00,2.12041,R,ugm-3,7.07625,R,ugm-3,10.13625,R,ugm-3
08-01-2023,12:00,2.12041,R,ugm-3,6.31125,R,ugm-3,9.56250,R,ugm-3
08-01-2023,13:00,1.99568,R,ugm-3,5.16375,R,ugm-3,8.22375,R,ugm-3
08-01-2023,14:00,1.87095,R,ugm-3,6.31125,R,ugm-3,9.18000,R,ugm-3
08-01-2023,15:00,2.86879,R,ugm-3,9.75375,R,ugm-3,14.15250,R,ugm-3
08-01-2023,16:00,2.36987,R,ugm-3,8.79750,R,ugm-3,12.43125,R,ugm-3
08-01-2023,17:00,2.12041,R,ugm-3,11.47500,R,ugm-3,14.91750,R,ugm-3
08-01-2023,18:00,2.99352,R,ugm-3,13.00500,R,ugm-3,17.59500,R,ugm-3
08-01-2023,19:00,6.11177,R,ugm-3,17.97750,R,ugm-3,27.15750,R,ugm-3
08-01-2023,20:00,5.98704,R,ugm-3,21.61125,R,ugm-3,30.79125,R,ugm-3
08-01-2023,21:00,2.99352,R,ugm-3,17.40375,R,ugm-3,21.99375,R,ugm-3
08-01-2023,22:00,2.12041,R,ugm-3,15.10875,R,ugm-3,18.16875,R,ugm-3
08-01-2023,23:00,1.62149,R,ugm-3,12.04875,R,ugm-3,14.53500,R,ugm-3
08-01-2023,24:00,1.37203,R,ugm-3,8.41500,R,ugm-3,10.71000,R,ugm-3
09-01-2023,01:00,2.49460,R,ugm-3,11.66625,R,ugm-3,15.68250,R,ugm-3
09-01-2023,02:00,2.86879,R,ugm-3,12.04875,R,ugm-3,16.44750,R,ugm-3
09-01-2023,03:00,3.24298,R,ugm-3,9.75375,R,ugm-3,14.91750,R,ugm-3
09-01-2023,04:00,1.99568,R,ugm-3,8.98875,R,ugm-3,12.04875,R,ugm-3
09-01-2023,05:00,2.24514,R,ugm-3,9.94500,R,ugm-3,13.38750,R,ugm-3
09-01-2023,06:00,4.11609,R,ugm-3,14.15250,R,ugm-3,20.46375,R,ugm-3
09-01-2023,07:00,3.61717,R,ugm-3,16.06500,R,ugm-3,21.61125,R,ugm-3
09-01-2023,08:00,6.61069,R,ugm-3,24.09750,R,ugm-3,34.23375,R,ugm-3
09-01-2023,09:00,11.47516,R,ugm-3,26.96625,R,ugm-3,44.56125,R,ugm-3
09-01-2023,10:00,10.47732,R,ugm-3,31.55625,R,ugm-3,47.62125,R,ugm-3
09-01-2023,11:00,11.35043,R,ugm-3,31.55625,R,ugm-3,48.96000,R,ugm-3
09-01-2023,12:00,16.46436,R,ugm-3,28.11375,R,ugm-3,53.35875,R,ugm-3
09-01-2023,13:00,9.72894,R,ugm-3,20.84625,R,ugm-3,35.76375,R,ugm-3
09-01-2023,14:00,13.59557,R,ugm-3,23.33250,R,ugm-3,43.98750,R,ugm-3
09-01-2023,15:00,15.71598,R,ugm-3,29.07000,R,ugm-3,53.16750,R,ugm-3
09-01-2023,16:00,17.46220,R,ugm-3,29.83500,R,ugm-3,56.41875,R,ugm-3
09-01-2023,17:00,28.81263,R,ugm-3,38.44125,R,ugm-3,82.62000,R,ugm-3
09-01-2023,18:00,23.19978,R,ugm-3,39.39750,R,ugm-3,74.97000,R,ugm-3
09-01-2023,19:00,14.46868,R,ugm-3,34.61625,R,ugm-3,56.80125,R,ugm-3
09-01-2023,20:00,11.10097,R,ugm-3,31.17375,R,ugm-3,48.00375,R,ugm-3
09-01-2023,21:00,4.86447,R,ugm-3,27.34875,R,ugm-3,34.80750,R,ugm-3
09-01-2023,22:00,5.86231,R,ugm-3,21.42000,R,ugm-3,30.60000,R,ugm-3
09-01-2023,23:00,4.11609,R,ugm-3,19.31625,R,ugm-3,25.62750,R,ugm-3
09-01-2023,24:00,3.99136,R,ugm-3,21.03750,R,ugm-3,27.15750,R,ugm-3
10-01-2023,01:00,3.74190,R,ugm-3,14.53500,R,ugm-3,20.27250,R,ugm-3
10-01-2023,02:00,1.49676,R,ugm-3,8.41500,R,ugm-3,10.71000,R,ugm-3
10-01-2023,03:00,2.12041,R,ugm-3,8.41500,R,ugm-3,11.47500,R,ugm-3
10-01-2023,04:00,1.49676,R,ugm-3,5.92875,R,ugm-3,8.03250,R,ugm-3
10-01-2023,05:00,1.49676,R,ugm-3,8.41500,R,ugm-3,10.71000,R,ugm-3
10-01-2023,06:00,2.99352,R,ugm-3,14.72625,R,ugm-3,19.31625,R,ugm-3
10-01-2023,07:00,2.49460,R,ugm-3,14.91750,R,ugm-3,18.74250,R,ugm-3
10-01-2023,08:00,2.24514,R,ugm-3,16.83000,R,ugm-3,20.08125,R,ugm-3
10-01-2023,09:00,3.86663,R,ugm-3,23.52375,R,ugm-3,29.26125,R,ugm-3
10-01-2023,10:00,2.36987,R,ugm-3,12.24000,R,ugm-3,15.68250,R,ugm-3
10-01-2023,11:00,1.99568,R,ugm-3,12.24000,R,ugm-3,15.30000,R,ugm-3
10-01-2023,12:00,3.36771,R,ugm-3,10.90125,R,ugm-3,16.06500,R,ugm-3
10-01-2023,13:00,3.24298,R,ugm-3,13.19625,R,ugm-3,18.16875,R,ugm-3
10-01-2023,14:00,4.98920,R,ugm-3,13.19625,R,ugm-3,20.84625,R,ugm-3
10-01-2023,15:00,3.86663,R,ugm-3,11.85750,R,ugm-3,17.59500,R,ugm-3
10-01-2023,16:00,6.11177,R,ugm-3,12.04875,R,ugm-3,21.22875,R,ugm-3
10-01-2023,17:00,4.61501,R,ugm-3,12.04875,R,ugm-3,19.12500,R,ugm-3
10-01-2023,18:00,4.98920,R,ugm-3,13.00500,R,ugm-3,20.46375,R,ugm-3
10-01-2023,19:00,3.36771,R,ugm-3,10.32750,R,ugm-3,15.49125,R,ugm-3
10-01-2023,20:00,2.86879,R,ugm-3,8.22375,R,ugm-3,12.62250,R,ugm-3
10-01-2023,21:00,2.86879,R,ugm-3,7.65000,R,ugm-3,12.04875,R,ugm-3
10-01-2023,22:00,2.24514,R,ugm-3,7.45875,R,ugm-3,10.71000,R,ugm-3
10-01-2023,23:00,2.74406,R,ugm-3,9.18000,R,ugm-3,13.38750,R,ugm-3
10-01-2023,24:00,2.24514,R,ugm-3,9.56250,R,ugm-3,13.00500,R,ugm-3
11-01-2023,01:00,1.74622,R,ugm-3,8.60625,R,ugm-3,11.28375,R,ugm-3
11-01-2023,02:00,1.74622,R,ugm-3,7.26750,R,ugm-3,9.94500,R,ugm-3
11-01-2023,03:00,2.24514,R,ugm-3,7.26750,R,ugm-3,10.71000,R,ugm-3
11-01-2023,04:00,1.87095,R,ugm-3,5.92875,R,ugm-3,8.79750,R,ugm-3
11-01-2023,05:00,2.49460,R,ugm-3,8.03250,R,ugm-3,11.85750,R,ugm-3
11-01-2023,06:00,2.49460,R,ugm-3,6.88500,R,ugm-3,10.51875,R,ugm-3
11-01-2023,07:00,3.11825,R,ugm-3,9.56250,R,ugm-3,14.34375,R,ugm-3
11-01-2023,08:00,3.99136,R,ugm-3,14.15250,R,ugm-3,20.27250,R,ugm-3
11-01-2023,09:00,7.60853,R,ugm-3,19.12500,R,ugm-3,30.79125,R,ugm-3
11-01-2023,10:00,7.23434,R,ugm-3,22.18500,R,ugm-3,33.27750,R,ugm-3
11-01-2023,11:00,6.61069,R,ugm-3,16.25625,R,ugm-3,26.39250,R,ugm-3
11-01-2023,12:00,6.98488,R,ugm-3,15.30000,R,ugm-3,26.01000,R,ugm-3
11-01-2023,13:00,,,,,,,,,
11-01-2023,14:00,4.86447,R,ugm-3,11.66625,R,ugm-3,19.12500,R,ugm-3
11-01-2023,15:00,6.11177,R,ugm-3,15.10875,R,ugm-3,24.48000,R,ugm-3
11-01-2023,16:00,5.61285,R,ugm-3,15.87375,R,ugm-3,24.48000,R,ugm-3
11-01-2023,17:00,7.85799,R,ugm-3,22.37625,R,ugm-3,34.42500,R,ugm-3
11-01-2023,18:00,7.23434,R,ugm-3,18.93375,R,ugm-3,30.02625,R,ugm-3
11-01-2023,19:00,4.86447,R,ugm-3,15.87375,R,ugm-3,23.33250,R,ugm-3
11-01-2023,20:00,4.11609,R,ugm-3,17.59500,R,ugm-3,24.09750,R,ugm-3
11-01-2023,21:00,4.61501,R,ugm-3,16.25625,R,ugm-3,23.33250,R,ugm-3
11-01-2023,22:00,2.99352,R,ugm-3,9.37125,R,ugm-3,13.96125,R,ugm-3
11-01-2023,23:00,2.24514,R,ugm-3,8.22375,R,ugm-3,11.66625,R,ugm-3
11-01-2023,24:00,1.62149,R,ugm-3,3.82500,R,ugm-3,6.12000,R,ugm-3
12-01-2023,01:00,1.87095,R,ugm-3,2.48625,R,ugm-3,5.16375,R,ugm-3
12-01-2023,02:00,1.12257,R,ugm-3,1.14750,R,ugm-3,3.06000,R,ugm-3
12-01-2023,03:00,1.62149,R,ugm-3,1.33875,R,ugm-3,3.82500,R,ugm-3
12-01-2023,04:00,1.37203,R,ugm-3,1.33875,R,ugm-3,3.44250,R,ugm-3
12-01-2023,05:00,0.87311,R,ugm-3,2.10375,R,ugm-3,3.44250,R,ugm-3
12-01-2023,06:00,1.37203,R,ugm-3,2.67750,R,ugm-3,4.78125,R,ugm-3
12-01-2023,07:00,2.12041,R,ugm-3,4.97250,R,ugm-3,8.22375,R,ugm-3
12-01-2023,08:00,4.49028,R,ugm-3,9.75375,R,ugm-3,16.63875,R,ugm-3
12-01-2023,09:00,4.11609,R,ugm-3,11.66625,R,ugm-3,17.97750,R,ugm-3
12-01-2023,10:00,4.24082,R,ugm-3,11.28375,R,ugm-3,17.97750,R,ugm-3
12-01-2023,11:00,4.86447,R,ugm-3,11.85750,R,ugm-3,19.31625,R,ugm-3
12-01-2023,12:00,5.23866,R,ugm-3,11.85750,R,ugm-3,19.89000,R,ugm-3
12-01-2023,13:00,5.61285,R,ugm-3,11.09250,R,ugm-3,19.50750,R,ugm-3
12-01-2023,14:00,4.36555,R,ugm-3,11.09250,R,ugm-3,17.59500,R,ugm-3
12-01-2023,15:00,5.48812,R,ugm-3,12.04875,R,ugm-3,20.46375,R,ugm-3
12-01-2023,16:00,8.85583,R,ugm-3,18.74250,R,ugm-3,32.32125,R,ugm-3
12-01-2023,17:00,10.35259,R,ugm-3,23.33250,R,ugm-3,39.20625,R,ugm-3
12-01-2023,18:00,9.97840,R,ugm-3,26.96625,R,ugm-3,42.26625,R,ugm-3
12-01-2023,19:00,10.22786,R,ugm-3,25.62750,R,ugm-3,41.50125,R,ugm-3
12-01-2023,20:00,5.86231,R,ugm-3,17.97750,R,ugm-3,26.96625,R,ugm-3
12-01-2023,21:00,3.74190,R,ugm-3,11.47500,R,ugm-3,17.40375,R,ugm-3
12-01-2023,22:00,3.74190,R,ugm-3,9.56250,R,ugm-3,15.49125,R,ugm-3
12-01-2023,23:00,2.74406,R,ugm-3,7.84125,R,ugm-3,12.04875,R,ugm-3
12-01-2023,24:00,2.61933,R,ugm-3,7.26750,R,ugm-3,11.09250,R,ugm-3
13-01-2023,01:00,2.49460,R,ugm-3,5.73750,R,ugm-3,9.56250,R,ugm-3
13-01-2023,02:00,2.24514,R,ugm-3,4.01625,R,ugm-3,7.26750,R,ugm-3
13-01-2023,03:00,1.87095,R,ugm-3,3.44250,R,ugm-3,6.12000,R,ugm-3
13-01-2023,04:00,1.49676,R,ugm-3,2.86875,R,ugm-3,5.16375,R,ugm-3
13-01-2023,05:00,1.49676,R,ugm-3,3.63375,R,ugm-3,5.92875,R,ugm-3
13-01-2023,06:00,1.87095,R,ugm-3,4.59000,R,ugm-3,7.45875,R,ugm-3
13-01-2023,07:00,2.49460,R,ugm-3,8.22375,R,ugm-3,11.85750,R,ugm-3
13-01-2023,08:00,4.98920,R,ugm-3,13.00500,R,ugm-3,20.65500,R,ugm-3
13-01-2023,09:00,11.35043,R,ugm-3,24.86250,R,ugm-3,42.26625,R,ugm-3
13-01-2023,10:00,8.85583,R,ugm-3,23.14125,R,ugm-3,36.72000,R,ugm-3
13-01-2023,11:00,8.23218,R,ugm-3,21.22875,R,ugm-3,33.85125,R,ugm-3
13-01-2023,12:00,8.48164,R,ugm-3,17.02125,R,ugm-3,30.02625,R,ugm-3
13-01-2023,13:00,8.98056,R,ugm-3,17.40375,R,ugm-3,30.98250,R,ugm-3
13-01-2023,14:00,11.22570,R,ugm-3,16.25625,R,ugm-3,33.27750,R,ugm-3
13-01-2023,15:00,12.84719,R,ugm-3,23.14125,R,ugm-3,42.84000,R,ugm-3
13-01-2023,16:00,14.21922,R,ugm-3,31.74750,R,ugm-3,53.55000,R,ugm-3
13-01-2023,17:00,9.35475,R,ugm-3,27.54000,R,ugm-3,41.88375,R,ugm-3
13-01-2023,18:00,13.72030,R,ugm-3,39.20625,R,ugm-3,60.05250,R,ugm-3
13-01-2023,19:00,7.85799,R,ugm-3,30.40875,R,ugm-3,42.45750,R,ugm-3
13-01-2023,20:00,8.10745,R,ugm-3,25.43625,R,ugm-3,37.86750,R,ugm-3
13-01-2023,21:00,5.11393,R,ugm-3,21.61125,R,ugm-3,29.45250,R,ugm-3
13-01-2023,22:00,4.49028,R,ugm-3,18.36000,R,ugm-3,25.24500,R,ugm-3
13-01-2023,23:00,3.99136,R,ugm-3,17.78625,R,ugm-3,23.90625,R,ugm-3
13-01-2023,24:00,2.99352,R,ugm-3,15.49125,R,ugm-3,19.89000,R,ugm-3
14-01-2023,01:00,1.99568,R,ugm-3,13.96125,R,ugm-3,17.02125,R,ugm-3
14-01-2023,02:00,1.62149,R,ugm-3,7.45875,R,ugm-3,9.94500,R,ugm-3
14-01-2023,03:00,1.37203,R,ugm-3,5.92875,R,ugm-3,7.84125,R,ugm-3
14-01-2023,04:00,0.87311,R,ugm-3,3.82500,R,ugm-3,5.16375,R,ugm-3
14-01-2023,05:00,0.99784,R,ugm-3,2.10375,R,ugm-3,3.82500,R,ugm-3
14-01-2023,06:00,1.24730,R,ugm-3,1.91250,R,ugm-3,3.82500,R,ugm-3
14-01-2023,07:00,1.12257,R,ugm-3,1.91250,R,ugm-3,3.63375,R,ugm-3
14-01-2023,08:00,1.37203,R,ugm-3,3.82500,R,ugm-3,5.92875,R,ugm-3
14-01-2023,09:00,1.49676,R,ugm-3,4.78125,R,ugm-3,7.07625,R,ugm-3
14-01-2023,10:00,1.62149,R,ugm-3,5.73750,R,ugm-3,8.22375,R,ugm-3
14-01-2023,11:00,1.87095,R,ugm-3,6.50250,R,ugm-3,9.56250,R,ugm-3
14-01-2023,12:00,2.49460,R,ugm-3,8.22375,R,ugm-3,11.85750,R,ugm-3
14-01-2023,13:00,5.48812,R,ugm-3,17.97750,R,ugm-3,26.39250,R,ugm-3
14-01-2023,14:00,6.11177,R,ugm-3,20.46375,R,ugm-3,29.83500,R,ugm-3
14-01-2023,15:00,5.36339,R,ugm-3,16.83000,R,ugm-3,25.05375,R,ugm-3
14-01-2023,16:00,6.48596,R,ugm-3,16.06500,R,ugm-3,26.20125,R,ugm-3
14-01-2023,17:00,7.10961,R,ugm-3,20.08125,R,ugm-3,30.79125,R,ugm-3
14-01-2023,18:00,8.48164,R,ugm-3,27.15750,R,ugm-3,40.16250,R,ugm-3
14-01-2023,19:00,5.73758,R,ugm-3,22.56750,R,ugm-3,31.36500,R,ugm-3
14-01-2023,20:00,6.86015,R,ugm-3,23.14125,R,ugm-3,33.46875,R,ugm-3
14-01-2023,21:00,6.36123,R,ugm-3,19.12500,R,ugm-3,28.87875,R,ugm-3
14-01-2023,22:00,6.98488,R,ugm-3,19.31625,R,ugm-3,30.02625,R,ugm-3
14-01-2023,23:00,3.99136,R,ugm-3,14.72625,R,ugm-3,20.65500,R,ugm-3
14-01-2023,24:00,3.36771,R,ugm-3,11.09250,R,ugm-3,16.25625,R,ugm-3
15-01-2023,01:00,3.11825,R,ugm-3,8.22375,R,ugm-3,13.00500,R,ugm-3
15-01-2023,02:00,3.36771,R,ugm-3,9.18000,R,ugm-3,14.15250,R,ugm-3
15-01-2023,03:00,1.99568,R,ugm-3,6.12000,R,ugm-3,9.18000,R,ugm-3
15-01-2023,04:00,1.74622,R,ugm-3,4.39875,R,ugm-3,7.07625,R,ugm-3
15-01-2023,05:00,1.74622,R,ugm-3,2.48625,R,ugm-3,5.16375,R,ugm-3
15-01-2023,06:00,1.62149,R,ugm-3,3.25125,R,ugm-3,5.73750,R,ugm-3
15-01-2023,07:00,1.62149,R,ugm-3,4.20750,R,ugm-3,6.69375,R,ugm-3
15-01-2023,08:00,1.62149,R,ugm-3,4.97250,R,ugm-3,7.45875,R,ugm-3
15-01-2023,09:00,1.74622,R,ugm-3,6.12000,R,ugm-3,8.98875,R,ugm-3
15-01-2023,10:00,2.86879,R,ugm-3,7.65000,R,ugm-3,12.04875,R,ugm-3
15-01-2023,11:00,3.24298,R,ugm-3,8.41500,R,ugm-3,13.38750,R,ugm-3
15-01-2023,12:00,3.36771,R,ugm-3,10.71000,R,ugm-3,15.68250,R,ugm-3
15-01-2023,13:00,5.11393,R,ugm-3,11.47500,R,ugm-3,19.31625,R,ugm-3
15-01-2023,14:00,7.85799,R,ugm-3,15.10875,R,ugm-3,27.15750,R,ugm-3
15-01-2023,15:00,5.98704,R,ugm-3,14.53500,R,ugm-3,23.71500,R,ugm-3
15-01-2023,16:00,5.11393,R,ugm-3,17.59500,R,ugm-3,25.43625,R,ugm-3
15-01-2023,17:00,6.36123,R,ugm-3,20.46375,R,ugm-3,30.21750,R,ugm-3
15-01-2023,18:00,5.36339,R,ugm-3,19.50750,R,ugm-3,27.73125,R,ugm-3
15-01-2023,19:00,4.24082,R,ugm-3,22.18500,R,ugm-3,28.68750,R,ugm-3
15-01-2023,20:00,5.86231,R,ugm-3,20.84625,R,ugm-3,29.83500,R,ugm-3
15-01-2023,21:00,3.61717,R,ugm-3,21.61125,R,ugm-3,27.15750,R,ugm-3